Temperature
12 12 13 13 12 11 11 13 14 16 17 18 19 18 18 17 17 17 17 17 17 16 16 16 16 16 15 15 15 15 16 16 16 16 16 16 16 16 16 16 16 17 17 17 17 17 17 17 17
11 12 12 13 11 11 11 13 14 16 17 18 18 18 17 17 17 16 16 16 16 16 16 16 16 15 15 15 15 15 16 16 16 16 16 16 16 16 16 16 16 17 17 17 17 17 17 17 17
11 11 12 10 11 11 12 14 14 16 18 17 17 17 17 17 16 16 16 16 16 16 16 16 15 15 15 15 15 15 16 16 16 16 16 16 16 16 16 16 17 17 17 17 18 17 17 17 17
10 11 11 10 11 11 13 14 15 16 17 17 17 16 16 17 17 16 16 16 16 16 16 15 15 15 15 15 15 15 16 16 16 16 16 16 16 16 17 17 17 17 17 18 18 17 17 17 17
10 10 10 10 11 12 12 14 15 15 16 16 16 16 16 17 17 16 16 16 16 15 15 15 15 15 15 15 15 15 16 16 16 16 16 16 16 17 17 17 17 17 17 17 17 17 17 17 17
9 9 10 10 11 12 12 15 15 15 15 16 16 16 16 16 16 16 16 16 16 15 15 15 15 15 15 15 15 15 16 16 16 16 16 17 17 17 17 17 17 17 17 17 17 17 17 17 17
8 9 10 10 11 11 13 15 15 15 15 16 16 15 15 16 16 16 16 16 15 15 15 15 15 15 15 15 15 15 15 16 16 16 17 17 17 17 17 17 17 17 17 17 17 17 17 17 17
9 8 9 9 10 12 14 15 16 16 15 17 17 15 15 16 16 16 16 15 15 15 15 15 15 15 15 15 15 15 15 15 16 16 17 17 17 17 17 17 17 17 17 17 17 17 17 17 17
8 8 9 9 10 12 14 14 15 15 16 16 16 17 17 16 16 16 15 15 15 15 15 15 15 15 15 15 15 15 15 15 15 16 16 17 17 17 17 17 17 17 17 17 17 17 17 16 16
8 8 9 10 11 12 13 14 14 14 14 15 15 16 16 16 15 15 15 15 15 15 15 15 15 15 15 15 15 15 15 15 15 16 16 16 17 17 17 17 17 17 17 17 17 16 16 16 16
8 8 9 10 11 12 12 13 14 14 13 14 14 15 15 16 16 16 16 16 16 15 15 15 15 15 15 15 15 15 15 15 15 15 16 16 16 17 17 17 17 17 17 17 16 16 16 16 16
7 8 9 10 10 11 11 12 13 13 14 14 15 15 15 15 15 16 15 16 16 16 15 15 15 15 16 16 15 15 15 15 15 15 16 16 16 16 16 16 16 16 16 16 16 16 16 15 15
7 8 9 9 10 10 11 12 12 13 14 14 15 15 15 15 15 16 16 16 16 16 16 15 15 15 16 16 16 15 15 15 15 15 16 16 16 16 16 16 16 16 16 16 16 15 15 15 15
7 7 8 9 10 10 10 11 12 12 13 14 14 14 15 15 15 15 15 15 16 16 16 15 15 15 16 16 16 16 15 15 15 15 15 15 15 15 15 15 15 15 15 15 15 15 15 15 14
7 7 7 8 9 10 10 11 11 12 13 13 14 14 14 14 15 15 15 15 15 15 16 15 15 15 16 16 16 16 15 15 15 15 15 15 15 15 15 15 15 15 15 15 14 14 14 14 14
6 6 7 8 9 9 10 10 11 12 12 12 13 14 14 14 14 15 15 15 15 15 15 15 15 15 15 16 16 16 15 15 15 15 15 14 14 14 14 14 14 14 14 14 14 14 14 14 14
6 5 6 7 9 9 9 9 10 11 12 12 12 13 13 14 14 14 14 15 15 15 15 15 15 15 15 15 15 15 15 15 15 15 14 14 14 14 14 14 14 14 14 14 14 13 13 13 13
5 5 6 7 8 9 9 9 10 10 11 11 12 13 13 13 14 14 14 14 14 14 14 15 15 15 15 15 15 15 15 15 15 14 14 14 14 14 14 13 13 13 13 13 13 13 13 13 13
6 6 6 7 8 8 8 9 9 10 10 10 11 12 13 13 14 14 14 14 14 14 14 14 14 15 15 14 14 14 15 15 15 14 14 14 14 14 14 13 13 13 13 13 13 13 13 13 13
6 6 6 7 8 8 8 9 9 10 10 10 11 12 13 13 13 14 14 14 14 14 14 14 14 14 14 14 14 14 14 15 15 15 14 14 14 14 13 13 13 13 13 13 13 13 13 13 12
6 6 6 7 8 8 8 9 9 10 10 11 11 12 13 13 13 14 14 15 15 15 15 15 14 14 14 14 14 14 14 14 14 14 14 14 14 14 13 13 13 13 13 13 13 13 13 13 12
6 7 7 7 7 7 8 8 9 9 9 10 11 11 12 13 14 14 14 15 15 15 15 15 15 15 15 14 14 14 14 14 14 14 14 14 14 14 13 13 13 13 13 13 13 13 13 13 12
6 7 7 7 7 7 7 8 8 9 9 10 10 11 12 13 14 14 15 15 15 15 15 15 15 15 15 14 14 14 14 14 14 14 14 14 14 14 13 13 13 13 13 13 13 13 13 12 12
7 7 7 7 7 7 7 7 8 8 9 10 10 11 12 13 14 14 15 15 15 15 15 15 15 15 15 15 14 14 14 14 14 14 14 14 13 13 13 13 13 13 13 13 13 13 12 12 12
7 6 6 6 6 7 7 8 8 9 9 9 10 11 12 12 13 14 14 15 15 15 15 15 15 15 15 15 14 14 14 14 14 14 13 13 13 13 13 13 13 13 13 12 12 12 12 12 11
6 7 6 7 6 7 7 7 8 9 8 9 10 10 11 12 13 13 14 14 15 15 15 15 15 15 15 14 14 14 14 14 14 13 13 13 13 13 13 13 12 12 12 12 12 12 11 11 11
7 6 7 6 6 7 7 7 8 9 8 8 8 9 10 12 12 13 13 14 14 14 14 14 14 14 14 14 14 14 14 13 13 13 13 13 13 12 12 12 12 12 12 12 11 11 11 11 10
7 6 6 6 7 7 8 8 7 8 8 7 7 8 9 11 12 12 13 13 13 14 14 14 14 14 14 13 13 13 13 13 13 13 12 12 12 12 12 12 11 11 11 11 11 11 10 10 9
7 7 6 5 6 7 7 8 8 7 7 7 6 7 8 10 11 11 12 12 13 13 13 13 13 13 13 13 13 13 12 12 12 12 12 12 11 11 11 11 11 11 10 10 10 10 9 9 8
7 7 6 6 6 5 6 7 7 5 6 6 6 7 8 9 10 10 11 11 12 12 12 12 12 12 12 12 12 12 12 11 11 11 11 11 11 10 10 10 10 10 10 10 9 9 8 8 7
Wind_Speed
10 7 1 3 3 2 7 7 5 5 5 3 2 3 4 4 4 3 1 8 14 15 18 21 21 20 18 17 16 15 14 14 14 15 18 20 20 21 21 20 20 20 19 19 19 18 17 16 14
6 2 2 3 5 7 7 8 8 7 6 3 3 3 3 1 1 4 6 9 15 15 17 19 21 20 19 17 16 16 15 15 15 16 18 19 20 20 20 20 19 19 19 18 18 17 15 14 13
6 1 3 4 6 10 8 7 11 7 4 4 2 2 2 1 2 4 6 13 13 12 16 19 21 20 19 17 17 16 15 15 15 16 17 18 19 19 19 19 18 18 18 17 16 15 14 13 13
1 1 2 5 11 11 10 6 6 5 3 3 4 2 0 1 2 4 11 14 14 10 15 19 21 19 18 17 17 17 16 16 16 16 17 18 18 18 18 18 17 17 16 16 15 14 13 12 12
1 2 5 8 11 10 10 7 5 6 6 4 6 5 2 2 3 10 14 15 14 11 14 19 20 19 18 17 17 17 16 16 16 17 17 17 17 18 17 16 16 15 15 14 14 13 12 12 12
1 3 7 12 12 11 9 7 4 4 5 5 7 6 3 1 7 11 12 13 12 12 12 17 20 19 17 16 16 16 17 16 16 16 17 17 16 16 16 15 14 14 13 13 12 11 10 10 10
3 4 7 9 11 11 10 6 6 6 6 7 8 7 3 5 7 11 11 12 11 11 10 12 16 17 16 16 16 16 17 16 16 15 16 16 16 15 15 14 13 12 11 11 10 9 8 8 8
3 3 7 7 10 11 7 4 5 6 6 4 7 9 7 8 10 11 10 10 10 10 9 9 13 14 14 14 15 16 17 16 15 15 15 15 15 14 13 12 11 10 9 8 7 7 6 6 6
3 5 9 9 9 7 5 5 3 1 3 3 4 5 7 15 13 12 10 9 10 11 9 9 10 12 13 13 14 15 16 16 15 14 15 14 12 11 10 10 9 8 8 6 5 4 4 5 5
5 7 8 4 4 3 3 5 4 1 1 1 1 2 10 18 17 15 13 13 13 13 11 10 10 10 12 11 12 12 12 13 13 13 13 11 10 9 8 8 8 7 6 4 3 3 3 4 4
5 7 3 3 3 3 3 3 4 5 4 3 5 5 13 16 17 16 14 13 12 11 11 11 10 10 10 8 10 9 9 10 11 12 12 10 9 7 6 6 5 5 4 3 2 2 2 2 3
4 5 3 3 3 3 4 2 2 4 6 4 4 7 14 16 17 17 16 14 11 10 11 10 10 10 10 10 9 9 9 9 9 11 12 10 7 5 5 5 4 4 3 2 1 1 1 2 2
6 4 3 4 4 4 4 3 3 4 4 2 1 5 11 14 15 15 15 15 14 13 12 11 10 10 9 8 7 8 9 9 11 11 12 11 7 5 5 5 5 4 4 4 3 2 1 2 3
4 4 5 5 5 3 4 5 2 5 2 2 2 4 5 9 12 12 12 13 15 15 13 11 11 10 9 8 7 7 9 10 11 11 13 13 10 8 6 5 5 6 6 5 4 3 2 2 2
2 4 5 5 4 3 2 5 6 5 2 3 3 2 3 4 8 11 12 12 13 13 12 12 11 11 11 10 9 8 9 10 9 10 13 14 12 10 8 5 4 6 7 6 4 3 2 2 2
1 2 4 4 4 3 4 8 5 2 4 5 3 2 3 3 5 7 10 11 11 11 12 13 11 11 10 9 8 7 9 9 9 10 12 14 14 13 9 5 5 8 7 5 3 2 2 2 2
3 4 4 2 3 4 6 6 3 1 4 5 4 3 3 4 5 5 7 10 12 13 13 13 12 12 11 9 7 6 7 8 8 9 10 12 14 14 10 6 6 8 6 4 3 2 2 2 2
5 4 4 4 1 3 4 4 3 1 3 4 4 3 3 4 6 4 6 7 9 10 12 13 13 12 10 7 5 4 5 5 6 7 9 12 12 13 11 7 7 7 4 3 3 2 2 2 1
2 4 3 3 2 2 4 5 4 2 2 3 4 4 5 6 5 4 4 6 7 8 10 12 12 12 10 7 7 6 6 6 5 5 8 11 11 12 10 6 5 5 5 4 4 3 2 1 0
4 4 3 1 2 2 3 5 5 5 5 6 6 6 7 5 5 5 4 4 8 9 10 11 12 11 11 9 7 5 4 4 4 4 6 8 10 11 10 7 5 5 4 4 4 3 2 1 1
6 7 5 2 0 0 1 3 4 4 4 5 6 6 6 7 8 7 6 5 6 8 10 9 10 11 12 10 6 4 3 2 2 4 4 5 8 9 9 8 6 5 5 5 4 4 4 2 1
5 5 6 5 3 1 3 2 4 4 5 7 8 7 7 8 7 6 6 6 6 7 7 8 9 9 10 10 9 9 8 7 7 6 5 5 6 7 8 8 7 5 4 5 4 4 3 3 2
4 4 5 4 3 1 2 2 5 2 5 9 9 9 9 8 7 7 6 6 5 5 5 5 6 7 7 8 10 10 8 6 5 5 6 5 3 5 6 7 6 5 4 5 4 4 3 3 3
4 5 5 3 2 1 3 4 4 3 6 6 7 7 7 7 6 5 4 3 3 2 3 3 4 4 5 7 8 9 10 8 7 7 7 5 4 3 5 6 6 5 5 5 4 4 4 3 2
3 5 3 2 1 2 2 3 6 5 5 7 7 6 5 5 4 2 2 2 2 2 3 4 5 4 4 5 6 7 7 8 9 8 8 7 5 4 5 5 5 5 5 5 5 4 3 3 3
3 2 4 4 4 0 1 3 5 5 4 2 1 1 1 1 1 0 1 0 1 1 2 3 3 3 3 3 3 3 5 5 5 6 7 7 5 5 6 6 6 6 6 5 5 4 3 2 2
3 1 1 4 3 2 1 4 5 4 6 6 3 2 1 1 2 3 3 2 2 1 1 2 2 2 2 2 2 2 3 4 4 5 6 6 6 6 7 6 6 6 6 5 5 3 3 2 2
2 2 3 3 3 2 1 2 3 6 6 6 4 3 2 3 4 4 4 4 4 3 2 3 2 2 2 2 1 2 2 3 4 5 6 7 7 8 8 7 7 6 5 5 4 3 3 2 2
2 2 3 3 2 4 2 3 2 5 4 2 4 4 4 5 6 5 6 5 5 5 4 4 3 2 1 1 2 2 3 4 5 5 6 7 7 8 8 8 7 7 5 5 4 3 3 3 2
1 1 3 3 1 2 3 3 5 3 2 3 5 6 7 7 6 6 7 7 7 6 5 4 2 1 0 1 2 3 3 4 5 6 6 7 8 7 8 7 7 6 5 4 4 4 3 3 3
Wind_Direction
306 312 70 78 102 179 225 229 219 205 198 187 154 137 146 164 190 229 102 144 139 145 151 150 148 145 142 140 137 131 126 122 118 118 121 120 120 121 120 118 116 115 115 114 111 107 104 100 98
302 292 81 108 175 213 233 221 219 210 196 154 86 89 94 120 105 117 141 147 142 145 148 149 147 145 143 142 139 134 129 126 121 120 120 120 119 119 118 116 116 115 115 114 111 107 102 98 96
308 255 166 159 198 208 225 216 215 222 201 160 113 65 125 155 137 148 151 147 139 140 144 149 147 145 145 145 142 137 133 130 126 124 122 120 119 119 117 117 116 116 115 114 111 107 102 98 95
347 90 145 193 213 215 220 221 196 190 202 191 147 139 315 94 174 155 143 145 139 137 143 149 146 146 147 148 145 141 137 135 131 128 126 123 122 121 119 119 118 118 118 117 113 108 103 99 97
90 169 196 215 220 228 233 243 196 179 189 188 160 168 209 333 129 137 145 148 145 141 144 149 147 147 149 150 148 144 140 139 136 132 129 128 127 125 124 123 123 121 120 119 116 110 103 99 98
180 189 206 214 219 231 240 233 220 203 203 192 172 166 196 155 136 140 148 150 149 145 145 151 149 149 150 152 151 149 145 144 141 137 134 133 132 132 130 129 127 126 124 122 118 111 104 98 98
189 199 214 211 218 231 234 211 206 208 206 201 173 159 168 167 152 143 150 148 148 146 145 147 149 149 151 153 154 153 150 149 147 143 139 137 137 137 136 134 132 131 128 124 119 112 102 95 92
191 203 210 208 211 228 223 206 215 197 212 196 169 166 173 174 149 139 145 150 152 151 149 145 146 147 149 153 156 155 152 152 150 146 141 140 141 141 140 138 137 135 131 127 120 112 99 86 81
178 222 219 205 204 225 197 204 240 242 173 188 197 185 166 147 143 142 147 156 164 163 156 151 148 147 149 153 158 156 153 154 151 147 145 142 142 143 142 143 142 140 138 135 127 113 90 73 63
194 222 225 212 206 226 211 199 201 177 196 206 172 95 143 147 154 158 163 169 177 175 170 161 157 153 151 154 153 151 151 151 148 148 148 146 145 145 145 150 152 152 150 145 130 101 72 56 41
212 225 244 264 269 292 259 220 193 171 207 212 188 169 159 161 163 167 171 175 184 180 178 170 164 159 156 151 152 150 149 149 150 155 155 152 148 149 150 156 162 163 160 148 117 76 55 33 12
252 246 243 279 318 307 279 234 189 184 212 230 225 178 171 174 173 172 176 179 180 184 186 178 169 165 162 156 157 158 158 160 161 166 166 161 158 162 168 173 178 179 180 179 181 177 324 328 319
245 264 260 284 297 289 288 261 215 223 234 225 133 160 176 184 185 182 181 181 184 188 189 187 177 172 166 159 162 166 170 173 173 174 177 177 174 178 182 187 191 200 203 204 207 221 260 289 300
247 273 279 267 249 256 257 272 233 244 216 180 174 173 182 192 189 184 183 187 183 185 186 191 185 179 170 169 168 171 177 176 175 180 186 188 189 187 185 188 197 208 211 214 211 218 241 271 285
255 277 283 254 228 230 225 260 234 236 195 190 198 200 201 209 194 191 190 189 186 186 183 192 195 184 180 179 175 173 178 179 181 188 191 193 195 193 189 186 199 212 211 208 210 222 227 250 259
190 239 244 243 206 208 187 240 250 214 184 202 214 215 242 247 224 201 193 187 185 187 186 192 199 193 190 184 179 177 178 183 189 190 193 197 198 196 188 187 202 207 196 187 181 184 200 231 245
187 205 216 252 211 190 189 238 272 194 185 206 216 227 247 263 260 221 201 191 188 191 191 190 191 192 193 189 181 179 178 184 189 190 194 199 199 196 189 191 197 189 177 175 177 177 183 212 247
191 185 195 199 239 183 196 248 295 272 188 209 214 228 250 261 266 255 218 198 192 195 198 196 192 191 188 186 182 177 182 187 186 191 197 199 197 192 187 187 184 173 162 168 172 175 176 196 241
175 166 189 215 253 193 209 243 262 253 218 216 223 233 245 255 275 273 234 203 191 196 200 199 197 192 184 186 190 191 199 197 190 191 198 201 196 189 184 179 170 167 171 171 167 157 156 165 79
207 202 218 260 236 201 215 249 245 223 216 219 218 224 239 252 270 269 249 207 198 197 200 197 198 194 193 196 193 187 180 190 191 179 187 199 196 188 184 173 170 165 158 150 149 140 137 134 104
214 215 209 195 78 150 158 272 243 233 220 231 232 228 235 241 249 253 253 229 209 201 198 199 198 196 198 194 176 154 140 123 172 192 192 198 193 184 176 170 160 159 159 160 156 152 156 175 181
215 209 199 187 162 176 166 233 260 221 230 230 235 239 245 248 245 244 246 242 222 218 202 195 196 199 196 188 186 181 185 193 200 196 185 177 173 168 166 159 154 153 151 152 157 156 157 158 190
192 169 165 163 148 110 135 175 278 214 230 232 230 235 242 245 241 241 237 235 226 210 201 196 190 191 189 187 190 191 196 197 179 168 166 165 156 147 149 146 143 144 146 148 145 146 147 155 174
147 111 99 81 94 163 194 173 275 234 229 235 227 230 240 243 241 243 242 229 220 170 164 167 176 186 181 184 191 191 194 183 171 174 174 169 158 146 147 143 144 142 143 144 141 139 140 149 162
128 125 115 97 133 231 185 169 257 269 257 235 224 224 231 229 219 223 235 223 209 167 160 161 170 179 173 180 192 195 194 186 187 184 182 175 170 171 167 151 147 139 134 130 126 126 134 148 165
148 138 146 154 172 182 141 220 269 306 308 280 197 189 207 228 217 122 329 255 192 162 147 153 163 158 153 173 188 184 182 185 188 183 174 174 171 163 154 144 139 130 127 122 119 118 124 144 158
132 173 156 113 100 102 245 292 316 360 15 23 40 68 49 345 39 40 22 30 53 71 107 148 148 133 132 147 159 164 170 175 174 165 158 154 148 143 140 134 129 122 118 117 120 126 134 141 156
124 148 97 106 130 116 351 308 300 328 347 9 32 47 31 30 37 32 27 29 43 54 54 69 93 111 113 125 154 146 145 151 149 151 151 147 143 137 136 133 128 123 120 120 120 121 127 138 158
65 74 96 96 114 134 150 281 300 280 294 352 33 40 42 42 36 29 26 29 43 49 54 56 61 76 98 128 136 126 122 127 133 138 141 140 137 139 140 139 135 131 128 126 123 126 136 151 154
206 169 144 128 120 114 132 273 330 309 334 73 60 43 41 44 39 35 32 31 34 33 30 31 33 47 82 137 136 139 136 134 135 137 138 139 138 135 135 135 133 133 135 135 137 141 146 157 169
Height
1497 1499 1501 1504 1507 1512 1510 1502 1495 1492 1491 1491 1491 1492 1494 1497 1500 1503 1497 1496 1501 1505 1510 1514 1517 1520 1522 1524 1526 1527 1529 1530 1532 1533 1535 1537 1539 1541 1544 1546 1548 1549 1551 1552 1553 1554 1555 1556 1557
1495 1497 1500 1501 1505 1510 1506 1496 1493 1488 1487 1488 1490 1492 1493 1494 1495 1495 1495 1497 1502 1506 1510 1514 1517 1520 1522 1524 1526 1528 1530 1531 1533 1535 1537 1538 1540 1543 1545 1547 1549 1551 1552 1554 1555 1556 1557 1558 1559
1493 1495 1497 1498 1500 1501 1498 1489 1488 1485 1486 1487 1489 1491 1493 1494 1495 1495 1495 1498 1503 1507 1510 1514 1518 1520 1522 1525 1527 1529 1530 1532 1534 1535 1538 1540 1542 1544 1546 1548 1550 1552 1554 1555 1557 1558 1559 1560 1561
1491 1493 1494 1497 1495 1492 1488 1484 1483 1485 1485 1486 1487 1491 1492 1494 1495 1496 1496 1499 1503 1507 1511 1515 1518 1520 1523 1525 1527 1529 1531 1533 1535 1537 1539 1541 1543 1545 1547 1550 1552 1553 1555 1557 1558 1560 1561 1562 1563
1489 1489 1492 1492 1490 1486 1483 1482 1482 1483 1483 1484 1485 1488 1490 1492 1495 1497 1498 1501 1504 1508 1512 1515 1518 1521 1523 1526 1528 1530 1532 1534 1536 1538 1540 1542 1544 1546 1549 1551 1553 1555 1556 1558 1560 1561 1562 1563 1564
1487 1486 1487 1486 1486 1483 1480 1480 1481 1481 1482 1483 1484 1486 1488 1492 1494 1497 1499 1502 1506 1509 1512 1515 1518 1521 1524 1526 1528 1531 1533 1535 1537 1539 1541 1543 1545 1548 1550 1552 1554 1556 1558 1559 1561 1562 1563 1564 1565
1485 1484 1482 1482 1483 1481 1477 1478 1479 1479 1480 1481 1482 1485 1487 1491 1494 1497 1500 1503 1506 1509 1513 1516 1518 1521 1524 1526 1529 1531 1534 1536 1538 1540 1542 1544 1546 1549 1551 1553 1555 1557 1559 1560 1562 1563 1564 1565 1565
1481 1483 1480 1481 1480 1477 1474 1475 1476 1477 1477 1478 1480 1482 1485 1489 1492 1496 1500 1503 1506 1509 1512 1516 1518 1521 1524 1526 1529 1532 1534 1536 1538 1541 1543 1545 1547 1550 1552 1554 1556 1558 1559 1561 1562 1563 1564 1565 1566
1480 1482 1477 1476 1475 1473 1471 1473 1474 1475 1476 1477 1478 1478 1481 1486 1490 1494 1498 1502 1506 1509 1512 1515 1518 1521 1524 1526 1529 1532 1535 1537 1539 1541 1543 1545 1548 1550 1552 1554 1556 1558 1560 1561 1562 1563 1564 1565 1566
1477 1477 1472 1470 1471 1470 1470 1470 1472 1473 1474 1475 1476 1477 1480 1483 1488 1492 1495 1499 1503 1507 1511 1514 1517 1520 1523 1526 1529 1532 1534 1537 1539 1541 1543 1546 1548 1550 1552 1554 1556 1558 1559 1561 1562 1563 1564 1565 1565
1473 1472 1470 1470 1470 1469 1469 1470 1470 1471 1473 1474 1474 1475 1479 1481 1485 1489 1493 1497 1501 1505 1509 1513 1516 1519 1522 1525 1528 1531 1534 1536 1538 1541 1543 1545 1547 1550 1552 1554 1555 1557 1559 1560 1561 1562 1563 1564 1564
1472 1469 1469 1469 1468 1469 1469 1469 1469 1469 1470 1472 1473 1474 1476 1479 1482 1486 1490 1494 1499 1503 1507 1511 1515 1518 1521 1524 1527 1530 1533 1535 1538 1540 1543 1545 1547 1549 1551 1553 1555 1556 1558 1559 1560 1561 1562 1563 1564
1471 1468 1468 1468 1468 1468 1468 1467 1467 1467 1469 1470 1472 1473 1475 1477 1481 1484 1488 1491 1496 1500 1505 1509 1513 1516 1519 1523 1526 1529 1532 1534 1537 1539 1542 1544 1547 1548 1550 1552 1554 1555 1557 1558 1559 1560 1561 1562 1562
1469 1468 1467 1467 1467 1468 1468 1466 1466 1465 1467 1469 1471 1473 1474 1476 1479 1483 1486 1489 1493 1496 1501 1507 1511 1515 1517 1520 1524 1527 1530 1533 1535 1538 1541 1543 1546 1547 1549 1551 1552 1554 1555 1557 1558 1558 1559 1560 1561
1468 1468 1467 1465 1465 1465 1466 1466 1465 1465 1466 1467 1470 1471 1473 1475 1478 1480 1484 1487 1491 1494 1499 1504 1508 1513 1516 1518 1522 1525 1528 1531 1534 1537 1539 1541 1544 1546 1548 1549 1551 1552 1553 1555 1556 1557 1557 1558 1559
1468 1469 1469 1464 1463 1464 1468 1466 1463 1464 1465 1466 1468 1470 1472 1475 1477 1479 1483 1487 1490 1494 1498 1502 1506 1510 1513 1516 1519 1523 1526 1529 1532 1535 1537 1539 1542 1544 1546 1547 1549 1550 1551 1553 1554 1554 1555 1556 1556
1468 1470 1469 1465 1462 1462 1465 1464 1461 1462 1463 1464 1466 1469 1471 1473 1475 1478 1481 1484 1488 1491 1495 1499 1503 1506 1510 1514 1517 1520 1523 1526 1529 1532 1535 1537 1539 1541 1543 1545 1546 1548 1549 1550 1551 1552 1553 1553 1553
1468 1468 1467 1465 1462 1462 1463 1463 1461 1461 1462 1463 1464 1467 1470 1472 1474 1476 1479 1482 1486 1489 1493 1497 1500 1503 1507 1511 1514 1517 1520 1523 1526 1529 1531 1534 1537 1539 1540 1542 1544 1545 1546 1548 1549 1550 1550 1550 1550
1464 1465 1465 1464 1461 1462 1462 1463 1462 1461 1462 1462 1463 1465 1468 1471 1473 1475 1477 1479 1483 1486 1490 1494 1497 1500 1504 1507 1510 1513 1516 1519 1522 1525 1528 1531 1533 1535 1537 1539 1541 1542 1544 1545 1546 1547 1547 1547 1547
1463 1465 1466 1463 1461 1462 1463 1463 1461 1460 1460 1461 1462 1464 1466 1468 1471 1473 1475 1478 1480 1483 1487 1490 1494 1497 1500 1503 1506 1510 1513 1516 1519 1522 1524 1527 1530 1532 1534 1536 1538 1539 1540 1542 1543 1544 1544 1544 1544
1462 1464 1464 1464 1463 1462 1463 1463 1460 1458 1458 1459 1460 1462 1463 1465 1468 1470 1473 1475 1478 1480 1484 1487 1490 1493 1496 1499 1502 1506 1509 1512 1515 1517 1520 1523 1525 1528 1530 1532 1534 1536 1537 1538 1539 1540 1541 1541 1541
1460 1459 1461 1463 1465 1467 1466 1468 1460 1457 1457 1457 1457 1458 1459 1462 1465 1467 1470 1472 1475 1478 1481 1484 1487 1489 1492 1496 1498 1501 1504 1507 1510 1513 1515 1519 1522 1524 1526 1528 1530 1532 1533 1535 1536 1537 1537 1537 1537
1457 1457 1460 1462 1465 1467 1467 1469 1463 1457 1457 1455 1454 1454 1456 1459 1461 1464 1467 1469 1472 1475 1478 1481 1484 1486 1489 1492 1495 1498 1501 1504 1507 1509 1512 1515 1517 1520 1522 1524 1526 1528 1529 1531 1532 1533 1533 1533 1533
1456 1459 1461 1464 1466 1470 1467 1469 1464 1458 1453 1451 1451 1451 1452 1455 1458 1461 1464 1466 1469 1472 1475 1478 1481 1484 1486 1489 1492 1495 1497 1500 1502 1505 1507 1510 1513 1516 1518 1520 1522 1524 1525 1527 1528 1528 1529 1529 1528
1457 1461 1466 1469 1471 1470 1465 1465 1461 1452 1450 1448 1447 1448 1450 1453 1456 1458 1461 1464 1466 1469 1473 1476 1478 1481 1484 1486 1489 1491 1494 1496 1499 1501 1504 1506 1509 1511 1514 1516 1518 1519 1521 1522 1523 1524 1524 1524 1524
1457 1460 1465 1467 1470 1470 1466 1465 1459 1452 1449 1447 1447 1448 1450 1452 1454 1456 1459 1461 1464 1467 1470 1473 1475 1478 1481 1483 1486 1488 1490 1492 1495 1497 1499 1502 1505 1507 1510 1512 1514 1516 1517 1518 1519 1519 1520 1520 1519
1457 1460 1460 1465 1468 1469 1468 1464 1457 1451 1450 1448 1448 1449 1450 1452 1453 1455 1458 1460 1462 1465 1468 1470 1473 1475 1478 1480 1483 1485 1487 1489 1491 1493 1495 1498 1500 1503 1505 1507 1509 1511 1512 1513 1514 1514 1515 1515 1514
1457 1458 1463 1465 1466 1467 1466 1465 1465 1457 1455 1453 1452 1451 1451 1452 1453 1455 1457 1459 1461 1464 1466 1468 1471 1473 1475 1477 1480 1481 1483 1485 1487 1489 1491 1493 1496 1498 1501 1503 1505 1506 1507 1508 1509 1509 1509 1509 1509
1459 1460 1462 1467 1466 1469 1470 1469 1461 1460 1457 1456 1455 1453 1453 1453 1454 1456 1457 1459 1461 1463 1465 1467 1469 1470 1472 1474 1476 1478 1479 1481 1483 1485 1487 1489 1491 1494 1496 1498 1500 1502 1503 1503 1504 1504 1504 1504 1504
1458 1458 1461 1465 1469 1472 1473 1473 1460 1459 1457 1456 1456 1455 1455 1455 1456 1457 1458 1459 1461 1462 1464 1466 1467 1469 1470 1471 1472 1474 1476 1477 1479 1481 1483 1485 1487 1490 1492 1494 1495 1497 1498 1498 1499 1499 1499 1499 1499